STARLINK-32478, 61726

Orbit data source: Space-Track

STARLINK-32478, 61726 is a payload satellite owned by SpaceX/Seattle (US) in LEO that was launched on Wed, 30 Oct 2024 UTC via an FALCON 9 launch vehicle from the Air Force Eastern Test Range (AFETR). Payloads include a variety of satellites, spacecraft, and rockets equipped with specific instruments for various scientific and technological missions. These include communications satellites like Starlink; space stations such as the ISS; scientific satellites like the Hubble; Earth observation satellites from companies like Planet Labs, Umbra, and HawkEye 360; GPS; miniature CubeSats for education and research; and military/defense satellites.

Loading next visibility...
STARLINK-32478 details
Identifier
61726, 2024-196V
Orbit
LEO
Last TLE update11 hours ago
Origin
Flag of USSpaceX/Seattle (US)
ManufacturerSpaceX/Seattle
MissionOperational spacecraft
Bus & MotorSTARLINK V2M, Unknown motor
Mass730 kg wet, ~700 kg dry
Launch date (UTC)
2024-10-30 (2 months ago)
Launch vehicle
FALCON 9
Launch site
Air Force Eastern Test Range (AFETR)
Object type
Payload
Rocket body
Debris
Shape & HBRUnknown
Radar Cross SectionLarge (>1 m²)

Expand to show TLE details & history

TLE from 11 hours ago
0 STARLINK-32478
1 61726U 24196V   24361.34406664  .00000548  00000-0  23704-4 0  9990
2 61726  53.1637 339.5628 0001341  79.3468 280.7688 15.39605537 10016
Epoch: 2024-12-26T08:15Z
Definitive object data (Epoch: 2024-12-26T08:15:27.357Z)
Latitude-0.00002°
Longitude120.37398°
Altitude448.008 km
Speed7.645 km/s
True Right ascension22h 38m 15s
True Declination0° 00' 00"
Sunlit
Object was in daylight at TLE epoch
Visualization TLE readout
Latitude46.28252°
Longitude169.35135°
Altitude451.366 km
Speed7.648 km/s
Apparent Right ascension04h 24m 41s
Apparent Declination6° 14' 31"
Sunlit
Object is in full shadow
Visualization observer readout
Local Sidereal Time18:49:07
Azimuth44.374° NE
Elevation-33.108°
Doppler factor1
Orbital elements
Apogee altitude448.447 km
Perigee altitude446.616 km
Semi-major axis6,825.669 km
Eccentricity0.0001341
Inclination53.1637°
RAAN339.5628°
Arg. of periapsis79.3468°
True anomaly280.7537°
Mean anomaly280.7688°
Eccentric anomaly280.76125°
Mean motion3.8488 °/min
BSTAR0.000023704
Orbital period93.54 mins
Loading maneuver chart data...
Loading historical data...
Loading historical data...
Loading historical data...
Loading historical data...
Loading historical data...
Loading historical data...
Loading historical data...

STARLINK-32478 Visibility forecast

Observer location: undefined°, undefined

Span
Click to sort rows by Start time (UTC) header in descending order
Start Az.
Max El. time (UTC)
Max El. Az.
Max El.
End time (UTC)
End Az.
6 mins2024-12-27 01:34:27.616Z230.391° WSW2024-12-27 01:37:27.616Z257.476° W44.766°2024-12-27 01:40:27.616Z49.097° ENE
5 mins2024-12-27 08:08:27.616Z319.143° NNW2024-12-27 08:10:27.616Z85.569° E42.337°2024-12-27 08:13:27.616Z124.134° SE
|